Hourly Weather Dziadki

Today, 9 May, Sunday

Time Temperature Precipitation Wind Pressure Humidity
00:00 +3°C° 0 mm 1 mps 754 mmHg 91%
01:00 +3°C° 0 mm 1 mps 754 mmHg 91%
02:00 +2°C° 0 mm 2 mps 754 mmHg 91%
03:00 +1°C° 0 mm 2 mps 754 mmHg 91%
04:00 +1°C° 0 mm 2 mps 754 mmHg 91%
05:00 +2°C° 0 mm 3 mps 754 mmHg 87%
06:00 +4°C° 0 mm 3 mps 754 mmHg 83%
07:00 +6°C° 0 mm 4 mps 754 mmHg 78%
08:00 +8°C° 0 mm 4 mps 754 mmHg 71%
09:00 +9°C° 0 mm 5 mps 754 mmHg 63%
10:00 +12°C° 0 mm 5 mps 754 mmHg 56%
11:00 +12°C° 0 mm 5 mps 753 mmHg 58%
12:00 +12°C° 0 mm 5 mps 753 mmHg 60%
13:00 +13°C° 0 mm 4 mps 753 mmHg 62%
14:00 +13°C° 0 mm 5 mps 753 mmHg 63%
15:00 +13°C° 0 mm 5 mps 752 mmHg 65%
16:00 +14°C° 0 mm 5 mps 752 mmHg 66%
17:00 +13°C° 0 mm 4 mps 752 mmHg 71%
18:00 +12°C° 0 mm 4 mps 752 mmHg 76%
19:00 +11°C° 0 mm 4 mps 752 mmHg 82%
20:00 +11°C° 0 mm 4 mps 752 mmHg 81%
21:00 +10°C° 0 mm 4 mps 752 mmHg 81%
22:00 +10°C° 0 mm 4 mps 752 mmHg 80%
23:00 +8°C° 0 mm 4 mps 752 mmHg 83%

Tomorrow, 10 May, Monday

Time Temperature Precipitation Wind Pressure Humidity
00:00 +8°C° 0 mm 4 mps 753 mmHg 86%
01:00 +8°C° 0 mm 3 mps 753 mmHg 89%
02:00 +8°C° 0 mm 3 mps 753 mmHg 90%
03:00 +7°C° 0 mm 3 mps 752 mmHg 92%
04:00 +7°C° 0 mm 3 mps 752 mmHg 93%
05:00 +8°C° 0 mm 4 mps 753 mmHg 86%
06:00 +9°C° 0 mm 5 mps 753 mmHg 79%
07:00 +11°C° 0 mm 6 mps 753 mmHg 72%
08:00 +14°C° 0 mm 6 mps 753 mmHg 67%
09:00 +16°C° 0 mm 6 mps 753 mmHg 62%
10:00 +17°C° 0 mm 7 mps 753 mmHg 57%
11:00 +18°C° 0 mm 7 mps 752 mmHg 57%
12:00 +20°C° 0 mm 7 mps 752 mmHg 56%
13:00 +21°C° 0 mm 7 mps 752 mmHg 55%
14:00 +21°C° 0 mm 7 mps 752 mmHg 58%
15:00 +21°C° 0 mm 7 mps 752 mmHg 61%
16:00 +20°C° 0 mm 7 mps 751 mmHg 64%
17:00 +19°C° 0 mm 6 mps 752 mmHg 68%
18:00 +17°C° 0 mm 6 mps 752 mmHg 73%
19:00 +16°C° 0 mm 5 mps 752 mmHg 77%
20:00 +15°C° 0 mm 5 mps 752 mmHg 78%
21:00 +14°C° 0 mm 6 mps 752 mmHg 79%
22:00 +14°C° 0 mm 6 mps 752 mmHg 80%
23:00 +13°C° 0 mm 5 mps 752 mmHg 82%

Day after tomorrow, 11 May, Tuesday

Time Temperature Precipitation Wind Pressure Humidity
00:00 +12°C° 0 mm 5 mps 752 mmHg 84%
01:00 +10°C° 0 mm 5 mps 752 mmHg 86%
02:00 +10°C° 0 mm 5 mps 752 mmHg 87%
03:00 +10°C° 0 mm 5 mps 752 mmHg 87%
04:00 +9°C° 0 mm 5 mps 752 mmHg 87%
05:00 +10°C° 0 mm 6 mps 752 mmHg 82%
06:00 +13°C° 0 mm 6 mps 752 mmHg 78%
07:00 +14°C° 0 mm 6 mps 752 mmHg 74%
08:00 +15°C° 0 mm 7 mps 752 mmHg 70%
09:00 +17°C° 0 mm 8 mps 751 mmHg 66%
10:00 +18°C° 0 mm 8 mps 751 mmHg 61%
11:00 +20°C° 0 mm 8 mps 751 mmHg 61%
12:00 +21°C° 0 mm 8 mps 751 mmHg 60%
13:00 +22°C° 0 mm 8 mps 751 mmHg 60%
14:00 +21°C° 0 mm 8 mps 751 mmHg 61%
15:00 +21°C° 0 mm 8 mps 750 mmHg 62%
16:00 +21°C° 0 mm 8 mps 750 mmHg 63%
17:00 +18°C° 0 mm 7 mps 750 mmHg 65%
18:00 +17°C° 0 mm 7 mps 750 mmHg 66%
19:00 +15°C° 0 mm 6 mps 750 mmHg 68%
20:00 +14°C° 0 mm 6 mps 750 mmHg 68%
21:00 +14°C° 0 mm 6 mps 751 mmHg 68%
22:00 +13°C° 0 mm 6 mps 751 mmHg 68%
23:00 +12°C° 0 mm 5 mps 750 mmHg 69%

12 May, Wednesday

Time Temperature Precipitation Wind Pressure Humidity
00:00 +10°C° 0 mm 5 mps 750 mmHg 71%
01:00 +10°C° 0 mm 5 mps 750 mmHg 72%
02:00 +9°C° 0 mm 5 mps 750 mmHg 75%
03:00 +9°C° 0 mm 5 mps 750 mmHg 78%
04:00 +9°C° 0 mm 5 mps 750 mmHg 81%
05:00 +10°C° 0 mm 6 mps 750 mmHg 79%
06:00 +13°C° 0 mm 6 mps 750 mmHg 78%
07:00 +14°C° 0 mm 7 mps 750 mmHg 76%
08:00 +16°C° 0 mm 7 mps 750 mmHg 72%
09:00 +17°C° 0 mm 7 mps 749 mmHg 68%
10:00 +20°C° 0 mm 8 mps 749 mmHg 64%
11:00 +20°C° 0 mm 7 mps 749 mmHg 59%
12:00 +20°C° 0 mm 7 mps 749 mmHg 55%
13:00 +21°C° 0 mm 7 mps 749 mmHg 50%
14:00 +21°C° 0 mm 7 mps 748 mmHg 54%
15:00 +20°C° 0 mm 6 mps 748 mmHg 58%
16:00 +20°C° 0 mm 5 mps 748 mmHg 62%
17:00 +19°C° 0 mm 5 mps 748 mmHg 67%
18:00 +17°C° 0 mm 4 mps 747 mmHg 73%
19:00 +15°C° 0 mm 4 mps 747 mmHg 79%
20:00 +14°C° 0 mm 4 mps 747 mmHg 82%
21:00 +12°C° 0 mm 4 mps 747 mmHg 84%
22:00 +11°C° 0 mm 4 mps 747 mmHg 87%
23:00 +11°C° 0 mm 4 mps 747 mmHg 87%

13 May, Thursday

Time Temperature Precipitation Wind Pressure Humidity
00:00 +11°C° 0 mm 4 mps 747 mmHg 88%
01:00 +10°C° 0 mm 5 mps 747 mmHg 88%
02:00 +9°C° 0 mm 5 mps 747 mmHg 89%
03:00 +10°C° 0 mm 4 mps 747 mmHg 90%
04:00 +10°C° 0 mm 4 mps 747 mmHg 92%
05:00 +10°C° 0 mm 4 mps 747 mmHg 87%
06:00 +10°C° 0 mm 5 mps 747 mmHg 83%
07:00 +10°C° 0 mm 5 mps 747 mmHg 79%
08:00 +12°C° 0 mm 5 mps 747 mmHg 73%
09:00 +13°C° 0 mm 5 mps 746 mmHg 67%
10:00 +14°C° 0 mm 5 mps 746 mmHg 61%
11:00 +14°C° 0.1 mm 4 mps 746 mmHg 65%
12:00 +14°C° 0.1 mm 4 mps 745 mmHg 68%
13:00 +14°C° 0.1 mm 4 mps 745 mmHg 71%
14:00 +13°C° 0.1 mm 3 mps 745 mmHg 74%
15:00 +13°C° 0.1 mm 3 mps 745 mmHg 78%
16:00 +12°C° 0.1 mm 3 mps 744 mmHg 81%
17:00 +13°C° 0 mm 2 mps 744 mmHg 84%
18:00 +12°C° 0 mm 1 mps 744 mmHg 86%
19:00 +11°C° 0 mm 0 mps 744 mmHg 88%
20:00 +11°C° 0 mm 0 mps 744 mmHg 89%
21:00 +10°C° 0 mm 0 mps 744 mmHg 89%
22:00 +10°C° 0 mm 0 mps 743 mmHg 89%
23:00 +11°C° 0 mm 1 mps 743 mmHg 90%

14 May, Friday

Time Temperature Precipitation Wind Pressure Humidity
00:00 +11°C° 0 mm 1 mps 743 mmHg 91%
01:00 +11°C° 0 mm 1 mps 743 mmHg 92%
02:00 +11°C° 0 mm 1 mps 743 mmHg 92%
03:00 +11°C° 0 mm 1 mps 743 mmHg 92%
04:00 +11°C° 0 mm 1 mps 743 mmHg 92%
05:00 +11°C° 0 mm 1 mps 744 mmHg 88%
06:00 +12°C° 0 mm 1 mps 744 mmHg 84%
07:00 +13°C° 0 mm 2 mps 744 mmHg 80%
08:00 +14°C° 0 mm 2 mps 744 mmHg 74%
09:00 +16°C° 0 mm 2 mps 744 mmHg 69%
10:00 +17°C° 0 mm 2 mps 744 mmHg 64%
11:00 +17°C° 0.2 mm 2 mps 744 mmHg 62%
12:00 +18°C° 0.2 mm 2 mps 744 mmHg 61%
13:00 +18°C° 0.2 mm 3 mps 744 mmHg 59%
14:00 +18°C° 0.1 mm 2 mps 744 mmHg 62%
15:00 +17°C° 0.1 mm 2 mps 744 mmHg 65%
16:00 +17°C° 0.1 mm 2 mps 744 mmHg 67%
17:00 +16°C° 0.1 mm 2 mps 744 mmHg 72%
18:00 +15°C° 0.1 mm 1 mps 744 mmHg 77%
19:00 +14°C° 0.1 mm 1 mps 744 mmHg 82%
20:00 +13°C° 0 mm 1 mps 745 mmHg 84%
21:00 +12°C° 0 mm 1 mps 745 mmHg 87%
22:00 +11°C° 0 mm 1 mps 745 mmHg 89%
23:00 +11°C° 0 mm 1 mps 745 mmHg 89%
Show more